GFSMA_2pvu_pres_021.txt.gz
Presure
210 216 219 215 205 193 208 189 190 176 183 188 183 182 188 183 196 150 176 190 177 192 211 213 193 186 181 206 197 190 213 220 197 196 192 184 186 199 187 171 178 183 179
235 210 225 200 198 208 197 192 179 181 179 184 182 182 187 189 181 186 190 191 188 193 210 212 213 211 182 181 194 202 172 191 234 223 220 193 193 189 195 181 179 181 194
203 222 214 218 210 213 190 188 182 180 180 188 185 185 188 184 187 190 195 116 194 154 199 195 203 209 215 174 178 187 190 175 194 184 220 197 194 187 184 165 204 196 229
205 198 192 198 217 201 182 179 182 183 191 192 186 184 189 181 189 195 195 177 210 201 200 195 198 201 196 213 176 176 180 194 199 189 185 183 214 206 180 184 191 189 201
193 200 196 208 203 193 182 186 189 192 189 193 189 189 187 190 196 195 177 191 194 196 160 175 187 184 197 202 203 212 190 202 184 194 174 205 194 184 176 183 186 180 178
195 205 198 193 186 181 189 188 195 196 197 192 190 189 190 196 193 195 194 182 191 191 194 193 194 195 189 196 204 198 205 193 204 185 178 199 193 218 223 195 210 190 202
199 194 193 194 193 190 193 196 193 190 192 201 206 198 192 184 189 192 183 191 191 195 199 193 169 196 197 192 204 199 206 191 213 178 208 182 186 196 213 219 194 195 200
191 195 196 196 196 196 193 191 195 199 196 195 194 194 188 193 193 193 195 196 197 197 202 206 203 200 196 199 197 204 209 208 212 215 187 213 189 183 196 209 212 204 195
202 190 190 200 198 143 198 204 207 203 212 216 216 216 216 212 210 208 209 215 212 215 209 213 211 219 215 213 213 207 208 208 219 218 218 221 185 192 181 203 207 207 203
183 195 196 191 198 204 207 212 215 211 212 222 227 233 242 245 245 245 240 238 248 253 251 250 243 214 211 150 222 223 222 214 220 216 218 221 224 188 192 189 203 203 208
203 199 197 202 204 204 210 210 204 219 231 227 249 255 255 273 283 275 280 269 264 254 267 268 268 267 276 269 253 243 236 232 230 231 214 216 222 227 205 182 192 205 201
192 199 195 196 201 213 207 205 224 230 255 261 285 277 273 294 297 336 327 383 374 371 390 363 341 391 379 321 286 291 264 255 247 241 233 236 223 190 216 228 188 197 201
192 194 194 204 208 205 213 224 251 265 275 273 277 291 298 318 420 440 474 475 479 469 458 428 385 348 356 378 379 366 358 309 315 278 259 243 237 227 229 185 235 196 201
193 202 206 213 208 221 235 262 270 278 276 286 317 379 472 458 477 459 441 442 507 468 453 449 466 469 454 376 367 343 371 383 374 337 295 272 254 243 226 238 235 195 204
200 202 211 213 234 267 269 282 279 290 319 458 491 237 451 413 442 484 483 473 463 453 441 425 421 428 440 455 466 384 360 358 356 380 372 292 291 264 244 232 241 238 243
210 210 223 252 265 274 271 282 298 459 441 453 426 432 498 467 437 432 428 432 435 432 431 411 402 405 406 425 438 446 457 409 357 351 342 380 310 300 259 250 239 242 241
214 249 245 261 278 271 290 442 453 471 445 399 438 465 424 406 392 383 380 381 383 393 407 410 308 403 411 409 413 425 434 443 452 396 350 336 345 309 310 311 261 251 243
251 242 274 277 270 315 469 455 491 406 394 384 416 391 381 375 367 363 362 361 361 361 367 373 371 374 378 390 399 401 402 431 433 439 451 367 335 318 322 309 306 307 255
271 267 286 292 494 474 456 436 398 386 408 389 376 370 365 360 356 353 353 352 351 353 356 364 361 356 362 364 368 383 396 415 426 425 428 441 457 375 318 282 314 282 291
270 277 372 506 471 440 408 393 387 385 379 370 363 360 355 353 349 355 363 366 368 370 369 367 363 360 360 358 359 360 372 383 408 419 415 416 437 430 454 337 303 288 281
276 429 499 463 428 398 374 386 379 373 363 355 353 348 338 356 356 380 435 433 436 451 476 467 408 371 367 363 362 361 363 371 375 396 411 404 413 427 430 453 393 311 282
431 493 462 427 391 367 388 376 367 355 352 346 337 365 345 355 423 417 416 422 428 438 463 466 461 419 418 376 375 375 366 359 366 370 404 400 399 424 418 446 420 375 304
484 468 423 389 365 355 380 368 350 349 341 330 353 340 358 417 404 408 418 427 432 436 461 460 452 443 408 414 425 425 407 369 357 367 388 393 392 406 409 417 420 414 373
461 429 388 357 339 384 372 353 347 336 324 338 326 359 413 398 393 408 425 438 441 444 454 448 442 448 423 407 413 411 428 371 351 355 382 385 382 394 407 397 410 439 398
412 382 363 346 366 378 358 350 335 318 336 323 349 366 401 385 385 393 416 443 454 453 445 451 447 449 446 422 414 428 460 376 344 356 386 368 372 378 395 404 410 427 384
382 361 348 347 365 356 349 343 315 334 322 323 352 401 387 371 375 383 397 449 469 473 444 454 487 451 451 452 442 463 337 345 361 368 362 355 370 382 391 386 417 409 440

GFSMA_2pvu_pres_024.txt.gz
Presure
233 228 185 199 209 208 220 204 198 194 194 197 210 182 179 185 183 184 192 183 190 190 186 179 194 191 187 190 211 179 187 215 243 240 209 195 205 181 193 186 175 173 181
214 206 202 207 230 208 203 194 190 194 200 208 203 182 182 185 185 190 191 192 197 189 188 187 202 209 206 199 201 214 162 192 203 225 206 201 195 185 203 181 191 178 180
206 210 211 202 222 196 193 193 193 196 186 185 182 186 187 184 185 196 199 200 193 191 184 191 201 205 150 197 205 201 213 183 184 200 232 203 203 205 189 197 179 183 173
210 209 206 215 192 194 192 197 200 192 191 192 189 187 190 194 196 191 188 192 195 198 197 196 196 134 175 205 202 209 201 208 184 181 195 202 237 197 195 194 180 171 186
201 209 205 191 192 192 189 184 189 196 195 197 197 192 188 187 185 188 193 195 196 195 195 196 195 194 195 201 203 200 203 201 204 181 183 189 213 211 217 189 194 179 197
204 193 191 193 193 192 188 187 199 184 181 193 192 190 188 192 195 195 196 194 192 191 192 196 194 190 143 196 195 196 199 208 193 205 185 181 186 201 201 249 187 183 187
194 191 185 197 191 184 192 196 188 190 95 155 182 191 191 191 193 197 196 192 193 196 203 202 202 193 194 194 141 198 201 198 190 203 205 211 191 183 200 197 205 215 205
185 192 190 194 200 195 191 194 188 191 193 195 192 196 198 196 197 192 197 201 208 212 215 214 208 205 204 202 199 202 199 203 199 192 204 213 199 190 190 203 210 190 207
185 192 197 194 185 184 195 188 193 190 192 195 194 206 209 215 210 213 214 221 226 224 230 237 226 227 221 212 209 205 206 207 205 206 194 199 201 208 190 191 191 210 216
194 199 197 183 197 196 192 202 195 203 195 213 215 216 223 225 227 234 258 254 251 254 259 257 257 264 271 261 232 221 218 215 213 212 214 208 202 178 218 217 211 190 212
200 196 186 206 200 199 202 204 205 210 212 217 217 224 224 228 278 293 291 282 292 300 294 299 294 278 282 285 281 269 243 235 225 226 214 219 218 212 210 210 222 219 203
191 208 209 201 200 203 203 207 208 216 219 220 229 285 294 286 293 297 320 335 504 499 510 543 526 518 488 407 315 281 312 289 264 238 231 170 229 223 222 222 199 224 216
206 200 199 195 201 202 206 213 217 218 262 273 285 295 307 326 336 431 469 486 474 504 483 482 485 493 525 520 491 419 389 334 301 293 277 248 237 230 230 229 227 206 225
195 188 198 201 207 206 213 218 282 276 291 297 294 362 475 464 452 458 465 424 489 468 453 459 492 491 439 447 476 472 461 400 388 370 281 289 262 249 240 236 233 226 222
188 198 197 205 208 219 267 281 273 290 281 348 483 473 492 429 468 429 403 433 421 420 411 402 424 452 449 447 448 444 444 457 456 381 381 366 285 277 259 248 243 237 226
195 207 222 231 256 268 277 279 286 289 504 475 487 428 408 399 404 400 396 389 386 387 392 372 371 390 425 430 424 423 424 429 441 460 384 380 351 312 285 272 257 250 244
232 249 257 254 276 257 285 289 434 480 451 425 407 393 396 396 384 375 368 367 368 371 378 371 369 361 298 392 418 412 410 414 421 433 450 462 344 352 366 339 281 263 246
256 248 274 246 274 274 294 492 469 439 407 387 403 394 382 374 364 362 363 359 358 359 364 366 359 356 362 362 375 398 412 411 413 417 431 441 456 374 350 366 349 292 274
259 259 271 261 279 401 489 465 427 395 373 381 380 376 365 360 357 350 348 364 360 361 379 393 391 375 369 354 367 370 378 397 409 409 415 428 438 453 465 355 360 329 320
264 244 259 275 408 473 459 418 385 361 352 385 375 362 360 347 341 350 348 364 424 421 424 427 433 442 452 422 376 367 371 376 383 389 401 409 425 436 449 464 349 357 364
241 255 274 339 452 451 413 377 358 353 391 372 362 353 333 346 339 358 418 414 407 412 427 435 436 438 445 459 491 376 372 372 368 372 378 389 398 425 431 447 462 360 352
290 278 372 454 452 415 383 362 352 381 366 361 346 323 341 334 360 415 402 390 391 411 439 456 450 446 445 464 477 478 375 371 365 366 364 372 377 392 422 429 437 464 364
294 378 458 450 419 384 366 354 365 364 354 347 326 337 331 353 355 401 381 381 387 402 455 469 454 446 450 455 464 465 427 373 364 363 361 362 367 367 400 423 426 433 460
334 464 446 425 389 371 357 354 366 355 346 325 337 327 343 354 406 387 365 363 365 384 475 477 469 441 440 449 452 450 425 414 368 367 363 358 360 359 371 417 409 431 440
468 450 427 396 371 364 354 360 363 349 319 334 325 328 351 351 397 374 349 338 335 349 496 483 440 452 450 445 444 448 412 412 414 418 389 362 351 352 361 405 404 433 423
452 432 407 377 359 359 358 372 357 318 329 322 323 327 350 352 391 350 328 328 328 327 327 471 444 462 465 450 453 448 411 408 404 412 451 364 345 349 367 392 390 408 430

GFSMA_2pvu_pres_027.txt.gz
Presure
223 238 238 225 205 216 211 215 215 216 216 202 202 202 197 192 192 190 190 188 191 190 189 190 190 190 197 190 180 190 189 192 186 206 271 204 196 196 184 193 189 212 195
235 241 227 211 218 210 207 209 215 203 196 197 190 189 191 190 193 195 193 192 190 192 195 198 197 198 196 195 190 184 199 197 191 214 193 242 201 196 194 178 178 195 207
226 223 211 224 218 213 211 210 192 192 191 192 192 193 185 192 200 180 183 188 187 190 188 185 188 189 189 191 192 180 198 202 196 204 211 183 222 234 237 193 182 172 196
214 219 218 215 208 206 206 194 192 187 193 193 191 187 192 193 184 178 189 194 186 186 188 190 194 196 201 202 192 200 200 206 194 202 207 201 188 216 221 199 197 182 182
210 215 211 205 206 201 189 189 193 190 192 192 198 195 190 190 194 188 153 188 187 192 190 188 190 197 199 201 202 198 197 204 195 197 196 222 197 196 217 213 195 189 187
214 211 206 205 206 198 193 193 184 193 197 198 185 182 196 100 189 168 193 192 193 190 190 191 192 194 199 199 200 202 179 196 202 201 200 195 220 199 192 211 214 221 190
216 208 203 201 200 196 190 192 198 202 201 184 184 192 193 129 193 201 194 189 193 196 195 196 202 201 197 196 197 197 206 202 200 195 201 202 199 212 196 192 216 206 220
194 195 193 193 195 197 202 207 203 191 184 191 193 196 200 193 192 189 194 196 197 201 204 204 203 202 204 207 208 208 209 203 206 205 186 203 188 203 214 201 192 215 204
197 201 203 205 205 205 200 189 198 191 204 205 202 197 198 198 205 208 208 211 219 224 226 225 228 222 222 221 216 214 216 217 217 224 215 204 205 162 203 213 201 195 212
207 207 205 203 203 207 210 205 205 204 201 207 211 213 210 222 221 224 231 235 239 236 236 246 271 264 266 259 257 243 234 231 230 230 230 224 217 208 187 195 208 208 195
208 210 206 206 208 210 209 210 206 207 210 211 214 218 218 235 241 251 318 308 315 332 321 296 298 285 284 295 301 289 280 276 265 241 244 239 233 222 209 214 199 203 214
203 209 210 201 197 199 205 205 210 214 216 231 275 283 270 288 306 315 331 403 513 515 499 494 453 486 493 519 548 541 393 302 297 289 264 253 252 242 227 207 213 203 197
208 196 194 197 203 201 206 206 217 259 264 265 248 278 308 301 330 533 512 522 503 494 454 492 460 480 494 488 490 516 536 551 554 291 302 285 268 254 250 182 213 200 200
198 197 200 195 204 200 219 258 267 252 269 266 304 324 296 479 459 439 426 428 416 415 413 413 419 429 435 449 451 463 499 506 519 528 530 404 302 286 259 251 244 226 207
196 194 197 204 228 256 264 250 250 248 306 323 296 489 459 428 409 392 387 407 411 413 399 384 383 386 393 401 405 413 433 475 477 456 496 504 437 317 291 271 261 248 233
202 211 213 235 249 258 237 264 268 293 298 306 469 438 414 393 375 382 396 393 386 388 393 375 366 366 372 376 382 387 392 415 458 454 448 469 478 441 333 292 279 262 250
216 225 251 252 263 229 246 271 279 305 318 460 432 405 384 369 394 390 378 371 374 369 373 361 364 363 363 367 373 382 381 382 402 440 439 437 453 465 446 379 297 283 261
233 256 253 262 230 247 256 299 317 340 451 425 400 379 364 397 382 368 367 357 346 352 360 360 379 441 444 371 369 369 374 379 377 397 428 427 431 442 462 449 381 308 291
253 251 263 232 249 256 272 365 472 452 421 396 376 363 386 371 365 356 336 344 344 358 390 424 411 415 428 434 445 457 377 370 375 376 401 416 419 426 437 456 458 358 305
246 233 244 254 252 292 363 442 448 423 396 376 362 371 370 367 343 329 344 341 364 415 402 392 390 402 423 446 450 448 450 417 372 374 373 401 407 410 419 430 451 457 367
226 233 260 277 294 341 328 445 422 395 378 365 364 370 368 338 334 338 350 363 410 394 373 365 376 401 456 462 461 456 453 446 425 369 368 372 398 410 414 415 426 452 452
230 257 268 269 338 361 444 425 396 378 366 360 372 365 332 334 331 328 363 408 394 365 348 349 369 472 474 477 463 457 454 453 459 437 366 365 374 393 408 413 431 433 449
256 313 275 328 370 445 425 401 381 371 369 373 367 330 334 328 324 337 351 396 360 343 340 334 345 501 481 469 460 454 455 463 476 489 378 363 362 371 381 399 413 435 448
292 274 336 351 450 430 406 380 370 358 361 368 335 331 325 318 335 350 394 372 341 334 363 367 331 470 448 451 456 446 449 462 464 461 395 360 361 360 373 378 391 413 439
268 331 378 431 438 415 391 368 362 367 365 336 325 330 318 312 339 349 401 351 331 343 352 357 349 342 459 475 449 443 446 447 440 434 429 363 361 363 364 362 370 384 429
279 319 429 432 427 402 377 381 382 361 355 323 329 317 312 331 343 346 399 339 327 325 330 340 358 342 452 457 454 445 440 429 416 411 415 367 360 360 361 356 363 369 392

GFSMA_2pvu_pres_030.txt.gz
Presure
201 210 214 240 248 203 217 215 212 222 215 209 205 211 200 196 195 197 194 192 187 185 191 195 195 191 191 194 194 194 190 194 193 173 204 196 198 206 195 214 194 183 196
212 202 235 241 225 229 226 234 235 215 208 210 212 205 200 195 192 200 197 194 186 186 193 192 187 194 194 193 192 196 198 198 188 183 194 205 213 231 195 200 193 191 186
242 211 221 227 227 224 225 223 217 217 212 211 207 195 186 194 191 192 192 199 200 201 191 180 175 177 191 190 189 189 188 194 194 191 167 202 200 225 218 199 198 196 188
210 211 207 223 216 216 216 211 212 210 205 203 201 197 195 193 196 196 196 196 194 191 192 196 184 188 188 189 188 190 191 185 192 191 189 180 187 198 231 271 203 192 193
203 207 216 216 212 211 195 193 193 197 199 201 202 201 202 204 207 209 205 202 183 184 149 192 191 186 190 188 174 184 189 192 195 195 191 190 184 195 192 229 205 186 193
210 215 210 196 202 194 201 202 205 207 210 210 208 207 206 202 186 188 194 134 98 194 194 196 197 184 192 194 193 191 193 183 196 202 195 170 200 193 207 200 218 200 184
222 186 195 200 204 209 211 214 212 211 210 211 211 211 210 207 206 207 205 204 207 210 211 209 210 203 199 186 185 185 195 197 200 201 204 209 198 200 191 202 194 224 226
194 203 203 194 196 199 199 200 195 199 199 199 202 205 207 205 209 207 204 205 201 197 200 201 202 203 204 204 204 212 211 196 204 197 198 207 202 209 197 193 201 203 219
198 195 194 195 190 193 198 199 196 196 202 207 201 196 194 207 209 214 218 221 221 227 228 224 224 215 209 209 207 210 214 213 218 220 218 215 210 200 209 195 193 202 209
192 193 195 215 225 225 215 209 205 203 195 198 210 210 218 217 217 224 234 266 306 240 253 309 278 273 270 273 258 244 230 224 222 229 226 163 217 215 209 199 194 200 197
236 236 224 211 195 197 201 201 208 211 209 209 213 216 249 231 265 261 275 294 298 341 357 345 271 279 308 322 307 288 280 269 261 248 236 239 235 226 223 225 186 195 189
221 209 203 199 195 193 199 202 207 216 212 214 230 274 270 263 263 274 313 347 359 380 471 467 465 466 467 531 532 367 523 513 308 284 270 256 253 248 236 229 223 215 187
200 194 191 198 193 202 202 205 206 217 240 267 271 259 277 290 326 334 350 469 458 436 417 414 412 428 434 432 440 484 506 506 506 512 344 309 274 263 256 247 229 225 219
197 199 195 189 200 206 207 195 258 257 254 246 274 283 283 293 345 339 454 439 416 395 379 396 398 401 405 416 422 422 432 460 473 482 491 527 329 295 286 272 256 245 233
192 188 204 209 214 229 244 257 255 251 248 277 303 278 319 347 462 442 417 399 387 392 410 388 380 378 382 387 395 402 120 412 421 432 447 465 532 550 295 291 284 274 250
184 206 217 231 233 246 259 262 229 253 282 286 281 342 428 448 427 404 387 374 395 391 392 367 364 361 357 363 371 381 354 73 395 406 415 425 455 513 533 304 291 290 271
221 221 227 234 260 258 259 270 275 276 266 295 346 454 438 419 395 379 368 381 379 375 365 344 346 355 359 357 357 363 369 378 386 390 395 406 417 472 493 490 401 294 276
218 237 250 251 245 218 244 259 267 270 314 423 451 434 413 390 374 364 379 377 364 345 353 357 352 377 425 421 420 427 438 447 379 382 390 391 394 413 469 478 478 500 297
235 243 253 257 224 230 265 287 277 391 399 450 431 412 390 371 363 378 370 349 340 348 345 370 420 408 392 387 388 400 413 424 361 451 383 384 393 393 426 460 454 481 489
240 194 242 228 254 275 279 271 337 320 413 433 413 388 371 367 380 367 339 343 340 336 351 415 386 368 364 361 365 386 414 436 454 449 448 379 380 386 389 433 444 436 470
223 259 240 249 271 290 271 340 318 423 434 416 390 378 373 375 371 336 341 334 326 342 394 381 353 348 348 346 346 494 497 484 473 462 450 449 378 380 383 394 427 440 444
261 249 233 267 273 265 347 313 452 438 420 398 378 381 367 371 334 336 328 324 328 350 402 349 345 354 365 367 339 504 482 482 470 456 454 449 454 373 376 380 420 421 429
260 268 246 256 266 317 314 402 435 425 402 378 355 366 372 332 337 325 322 322 344 365 362 343 343 340 367 365 334 462 455 450 455 452 457 452 449 432 365 374 389 413 416
257 285 283 273 292 318 411 381 433 410 384 361 360 371 333 335 324 320 323 347 356 401 350 335 330 338 343 364 335 470 468 455 445 445 452 464 467 476 371 369 375 411 408
267 288 281 291 318 407 338 404 423 397 368 372 364 333 335 320 320 336 345 351 353 394 342 329 333 344 354 360 370 462 451 445 449 453 463 470 479 485 373 358 368 396 413
280 288 275 302 365 341 372 433 410 379 352 337 323 333 320 320 329 336 350 351 349 390 336 324 336 343 351 351 346 460 447 436 435 439 444 449 456 451 367 356 362 380 394

GFSMA_2pvu_pres_033.txt.gz
Presure
204 208 215 210 201 142 255 232 216 243 239 224 228 221 227 226 235 223 211 211 203 194 192 191 192 198 184 190 191 185 182 180 193 198 197 180 178 243 188 210 200 201 204
208 204 204 200 243 216 228 228 230 229 222 224 223 204 200 203 202 205 213 211 200 189 188 187 194 192 197 193 191 196 194 194 194 192 200 185 190 204 205 189 201 192 190
190 133 237 219 220 238 223 217 216 203 208 210 210 216 216 215 215 212 209 204 199 192 192 195 189 193 196 185 191 198 198 193 192 190 195 193 199 173 228 196 189 198 189
243 223 223 229 222 226 215 220 203 197 205 210 207 205 198 202 213 216 214 211 209 215 212 205 207 207 208 203 198 197 199 181 185 194 195 203 204 198 193 206 193 189 170
209 230 221 224 228 202 201 201 203 204 200 193 199 201 197 201 201 201 207 207 207 215 217 218 206 199 210 206 204 152 193 194 180 187 189 191 198 208 181 191 226 201 195
216 222 223 213 203 207 199 202 199 201 201 198 192 198 202 208 213 208 208 223 227 224 219 222 217 221 128 205 196 185 187 190 196 195 194 194 191 194 205 182 228 205 199
216 200 192 199 199 195 195 197 190 188 192 218 236 228 225 222 207 207 207 207 206 205 204 203 201 203 207 220 211 216 220 204 202 184 193 200 192 194 193 198 182 239 198
200 201 203 196 197 198 194 183 203 226 231 217 204 199 201 197 193 202 203 213 215 215 215 211 216 217 220 217 218 218 194 207 219 222 200 199 193 187 195 202 193 204 200
199 201 202 202 203 218 234 235 224 211 200 198 199 190 190 197 209 211 212 224 209 215 230 237 235 231 234 239 244 243 238 231 221 206 208 210 196 194 194 195 202 194 179
210 229 239 238 239 234 209 199 197 197 197 191 193 200 214 213 221 225 215 223 264 270 259 267 270 311 293 325 310 291 292 272 249 243 243 224 213 208 217 202 195 206 195
255 257 257 223 208 202 200 200 200 196 200 198 214 221 221 221 272 279 284 276 252 263 299 301 301 320 318 324 481 399 328 287 294 288 258 251 235 235 219 201 213 217 208
228 212 204 200 197 197 196 203 201 196 211 204 224 236 262 261 261 266 272 291 296 306 475 450 476 464 455 448 446 447 453 466 471 440 290 284 271 253 233 225 223 206 207
201 200 200 202 200 198 202 195 207 207 215 261 269 266 266 241 250 287 299 300 412 352 465 446 429 421 414 411 408 408 426 437 450 447 466 504 278 278 273 246 235 223 216
197 196 196 193 194 184 201 207 229 235 263 275 258 242 278 300 288 302 360 345 468 456 431 409 395 387 397 419 414 413 408 411 419 428 437 448 483 503 267 284 255 247 236
207 196 193 190 183 198 221 235 243 262 272 264 245 272 288 266 348 333 373 451 440 425 405 380 377 386 390 389 388 389 390 392 396 406 412 424 439 462 497 305 281 269 251
192 194 193 191 201 216 236 264 265 252 274 286 268 263 297 339 339 456 441 423 403 392 393 378 380 383 371 362 359 360 366 368 371 379 247 404 417 430 444 470 355 289 275
201 198 195 206 227 239 266 256 242 243 255 293 294 296 339 401 450 434 415 396 381 376 393 380 355 346 352 356 359 361 382 388 385 381 374 384 274 412 421 434 457 365 295
192 213 214 221 241 256 261 244 231 230 292 304 285 339 391 451 429 413 390 377 373 381 377 345 338 345 344 355 391 425 413 410 416 413 439 429 187 390 403 413 425 448 473
208 225 229 231 253 252 241 253 268 284 306 278 338 365 452 433 412 388 372 373 383 356 334 348 337 335 354 418 391 374 369 368 375 381 391 420 442 396 388 404 411 423 439
230 233 236 252 251 245 244 262 269 292 267 340 406 373 440 418 391 372 376 380 346 335 342 336 333 352 410 375 360 359 363 365 373 359 369 389 414 433 466 387 399 403 418
234 236 251 254 246 248 238 267 322 319 339 355 340 445 424 396 370 373 381 338 340 337 330 335 355 359 377 355 351 351 358 377 373 353 355 492 441 439 434 460 389 399 403
237 256 212 266 235 251 276 267 259 342 333 378 383 430 400 373 355 340 332 339 329 326 347 354 367 411 355 344 341 352 366 375 480 351 158 483 472 463 459 450 437 394 392
254 252 246 219 257 268 284 287 341 345 356 380 441 410 374 363 337 330 337 318 337 339 353 357 356 373 344 337 343 358 367 366 487 471 461 466 462 458 459 457 465 381 390
252 247 246 257 265 298 277 298 351 343 383 422 423 383 376 337 327 334 317 332 334 342 382 368 372 358 337 335 344 366 367 425 469 454 458 452 450 453 454 454 451 408 377
260 245 238 256 269 244 270 351 324 397 369 433 398 365 338 334 332 317 331 332 337 343 378 362 392 345 333 336 338 358 364 465 454 449 451 444 441 452 458 458 453 455 372
237 265 266 265 252 289 337 333 412 379 393 412 375 350 330 333 311 326 321 325 333 354 377 355 384 338 334 336 334 347 362 375 426 433 436 439 451 459 461 463 454 455 376

GFSMA_2pvu_pres_036.txt.gz
Presure
191 187 190 190 194 193 209 212 204 225 233 223 248 220 222 234 206 211 226 225 234 203 204 211 217 205 204 203 191 193 195 195 206 195 191 193 186 182 186 207 200 195 200
193 197 187 200 215 217 204 239 228 240 248 232 218 220 218 208 239 214 210 209 215 216 207 222 233 201 210 195 192 195 197 193 186 197 187 184 184 202 181 258 211 200 191
189 189 217 205 208 241 215 250 218 224 228 213 210 214 206 209 205 204 208 211 203 199 200 206 212 223 220 196 199 192 185 203 190 187 193 188 185 185 199 179 211 213 197
219 200 204 223 214 223 218 216 224 212 205 213 208 204 202 196 201 193 204 217 237 253 240 230 220 206 209 218 222 197 186 192 198 193 195 199 189 183 192 194 177 209 205
215 225 215 224 226 222 230 216 206 214 208 202 202 205 201 202 205 229 235 229 226 220 227 227 224 210 226 223 226 216 220 216 191 192 196 188 201 195 193 199 208 177 200
216 235 236 226 221 214 205 209 205 203 204 204 203 201 221 232 233 220 208 207 210 207 197 197 204 209 215 212 211 215 222 236 216 212 209 204 197 202 197 196 189 190 237
222 219 214 204 205 213 207 205 204 213 225 250 248 228 218 210 205 207 208 204 202 200 202 205 215 215 215 214 210 215 221 195 222 212 237 216 217 207 198 203 219 212 185
204 201 208 205 207 222 236 264 266 266 254 227 219 213 208 206 202 199 205 201 203 207 213 226 227 225 228 232 234 233 230 227 221 222 220 212 219 215 207 196 198 202 192
198 212 218 223 239 240 236 235 224 214 208 207 205 201 198 199 204 203 207 215 219 224 233 237 262 268 269 271 274 265 252 253 238 241 234 218 228 206 206 198 199 213 220
217 224 223 221 219 218 217 213 210 202 197 204 200 198 201 211 203 217 216 231 264 277 279 279 276 260 265 294 254 267 299 315 332 283 257 238 251 220 231 193 185 203 211
219 224 217 215 210 206 207 203 202 209 204 202 200 200 205 223 216 246 271 263 262 259 291 314 256 275 307 310 302 357 338 322 314 323 285 286 305 254 242 236 218 194 206
216 218 228 227 212 204 210 201 205 199 203 205 207 215 224 254 280 277 256 252 248 283 356 311 428 488 475 472 470 467 464 459 465 469 474 479 388 306 285 247 236 223 210
217 223 220 217 225 214 206 204 195 207 202 216 228 237 282 267 275 251 293 317 297 354 449 474 460 451 442 436 433 428 422 416 418 423 431 442 451 469 438 345 265 231 222
232 232 231 224 209 203 200 207 204 206 222 246 253 278 267 252 251 324 296 369 372 477 422 448 433 419 414 409 403 398 396 401 407 411 417 429 439 444 458 472 387 267 234
236 231 220 206 204 205 209 216 224 229 252 265 273 265 250 280 296 268 347 363 377 470 458 429 408 394 391 387 391 399 396 391 390 391 393 405 417 424 435 445 460 480 280
230 213 204 201 205 210 223 227 241 257 257 261 247 244 248 277 273 364 348 366 455 443 441 407 387 383 392 391 378 364 358 357 359 367 370 377 390 402 415 432 437 451 471
206 203 201 206 214 216 227 238 257 254 270 253 243 275 268 278 300 358 345 442 437 417 405 403 377 389 373 354 346 350 354 353 356 361 270 425 389 396 389 408 424 430 442
204 201 207 211 212 225 241 243 259 242 262 265 262 272 274 291 350 350 400 437 414 390 399 393 374 341 343 351 350 343 342 369 428 401 391 379 407 432 454 394 403 420 423
201 211 213 215 226 241 249 254 252 269 234 269 265 251 277 326 411 393 438 414 385 392 384 350 343 344 337 332 347 365 377 410 378 366 364 373 379 390 412 438 401 400 416
205 210 218 228 243 241 258 241 245 260 267 269 277 283 349 407 393 442 414 393 367 351 338 343 329 331 347 356 366 375 406 368 355 353 241 360 376 383 385 402 424 398 402
214 217 238 239 240 255 243 249 256 266 264 262 303 342 365 399 387 415 403 362 350 345 332 335 343 344 351 380 374 399 366 350 342 354 378 369 380 251 387 379 395 423 393
217 239 237 242 252 243 255 260 266 274 267 275 291 331 413 384 432 411 361 343 341 324 338 340 342 348 392 379 373 369 347 342 347 375 378 377 499 493 495 370 373 398 425
241 240 250 249 245 247 245 256 265 263 310 328 337 428 386 372 402 370 345 342 324 331 329 332 346 383 385 365 385 348 341 349 352 366 369 483 479 476 404 390 483 484 421
244 254 266 253 246 253 253 265 302 321 289 333 402 400 372 417 376 348 343 323 328 320 322 334 353 395 372 391 357 338 342 340 350 362 428 462 464 459 460 470 470 471 460
252 246 242 255 260 268 262 293 319 325 333 341 373 383 385 394 359 341 330 325 318 317 314 329 352 392 361 388 342 338 337 330 344 353 413 424 451 454 447 453 460 464 459
241 242 248 248 255 267 289 309 331 329 344 384 399 369 381 379 350 341 322 316 314 312 308 322 343 388 363 377 338 331 326 344 344 355 414 403 422 439 451 445 456 455 454

GFSMA_2pvu_pres_039.txt.gz
Presure
193 185 192 189 180 182 190 192 196 196 192 196 225 223 232 226 242 230 213 218 226 212 211 212 209 212 213 220 211 196 199 217 210 210 199 222 205 200 195 185 212 217 219
192 191 183 184 200 203 192 185 200 204 226 217 240 238 246 227 212 223 221 215 210 208 213 207 198 201 211 213 206 213 220 209 214 217 198 201 214 202 199 184 189 202 229
188 196 196 198 181 181 194 204 217 257 245 219 240 230 215 217 216 211 215 215 218 211 208 212 208 252 254 247 256 254 201 232 205 213 207 194 209 205 198 192 184 196 219
198 190 186 195 215 220 208 225 240 235 229 224 210 214 214 211 217 222 221 231 246 256 254 242 243 235 228 224 220 217 242 253 216 206 211 201 197 193 202 192 191 188 185
205 209 201 203 213 222 220 230 225 218 210 213 204 216 245 245 275 277 266 230 237 222 217 216 219 206 208 213 216 211 200 196 200 221 219 206 204 197 197 195 187 183 189
200 200 239 228 214 230 216 207 199 206 208 224 239 246 243 244 232 225 222 221 210 212 210 195 208 208 206 206 202 205 207 187 205 210 207 209 211 205 200 192 189 188 175
197 226 226 215 207 204 205 216 214 216 215 218 233 226 222 209 207 201 196 205 207 204 204 207 211 212 208 219 223 222 222 228 228 228 225 229 205 225 208 198 197 199 193
226 211 202 196 223 220 208 229 228 231 236 235 224 214 204 205 211 210 208 196 206 209 212 213 217 221 224 228 234 240 247 251 248 245 245 241 233 229 220 217 201 199 204
208 194 216 217 213 214 215 216 233 224 222 235 212 228 216 210 198 191 203 202 203 205 215 222 230 239 243 280 295 294 297 290 291 304 278 251 245 241 237 221 224 206 202
215 205 203 210 214 222 227 247 242 239 239 229 225 215 204 201 202 204 204 202 208 227 262 269 269 268 273 275 278 291 278 269 265 263 273 311 305 266 254 237 234 228 214
207 207 199 198 199 203 224 240 235 232 221 210 204 197 199 202 230 238 259 272 291 267 260 256 266 256 285 306 409 443 496 512 510 508 344 351 311 311 316 268 249 239 227
199 197 204 208 209 216 240 232 217 208 203 200 205 222 224 243 261 271 267 256 255 282 257 266 281 345 380 450 478 479 475 474 479 482 486 484 489 352 298 309 294 253 237
201 208 209 208 211 239 228 208 207 207 212 223 230 233 242 258 272 256 253 276 284 287 324 380 390 449 469 459 453 445 440 440 439 441 444 447 451 458 466 412 309 296 281
194 203 199 209 223 240 205 209 215 214 215 222 238 250 250 257 254 259 238 275 286 271 347 367 473 459 449 439 426 417 410 408 405 406 408 417 421 425 437 450 468 323 284
199 200 206 213 236 203 208 210 208 217 220 240 250 248 252 238 262 262 279 296 319 345 364 421 463 441 425 414 402 397 395 394 402 402 399 404 411 415 419 425 437 451 465
197 203 207 210 221 208 206 204 213 218 234 247 259 245 252 251 257 271 297 319 334 379 446 467 441 415 400 396 387 395 394 381 374 372 369 369 374 383 394 408 418 427 440
199 201 208 208 237 206 198 212 218 227 251 242 266 266 260 271 272 300 330 326 365 436 402 446 409 407 391 393 364 349 285 352 357 360 360 361 364 367 371 379 390 405 421
193 207 204 236 224 209 210 218 221 248 255 243 239 243 255 264 270 333 320 327 387 399 445 426 379 368 350 353 352 343 338 342 344 345 359 357 358 364 370 373 384 383 393
206 212 234 219 209 207 215 227 245 252 246 240 251 254 261 275 332 315 323 402 403 446 422 377 354 349 341 345 350 353 351 355 362 385 384 400 186 390 390 394 400 412 428
211 234 208 211 214 213 234 244 261 254 253 263 266 261 280 316 330 321 353 402 421 423 379 351 342 338 336 341 348 354 361 399 388 380 406 374 368 287 369 372 380 388 404
230 208 212 220 215 243 248 270 264 249 258 254 271 290 324 334 325 350 384 394 428 385 350 341 335 331 333 339 357 387 400 386 375 394 363 351 354 277 370 383 383 384 391
209 218 220 221 252 259 269 262 250 264 267 216 272 290 325 328 344 375 400 371 400 359 343 331 325 324 322 337 405 397 378 402 371 363 344 348 354 361 376 389 398 405 398
222 217 237 253 261 268 254 267 270 266 271 273 296 325 341 345 350 371 383 405 376 350 336 326 319 315 316 339 404 375 394 377 351 344 347 343 351 368 486 494 487 489 498
230 251 253 276 263 248 255 254 258 278 284 306 323 348 350 354 418 394 367 390 358 343 328 321 313 312 316 341 391 386 385 347 344 343 340 345 359 389 441 479 472 474 475
247 261 259 258 254 263 262 259 270 283 288 337 337 355 364 423 401 371 352 373 346 336 325 314 309 310 311 330 389 394 354 343 335 342 357 351 360 417 424 448 462 460 469
254 260 265 253 274 271 274 278 332 337 287 353 355 380 418 402 380 357 373 363 342 332 322 313 309 307 306 324 398 378 345 336 342 353 349 359 374 408 413 442 460 454 459

GFSMA_2pvu_pres_045.txt.gz
Presure
188 107 157 158 147 196 200 197 202 175 189 196 185 198 189 194 215 215 196 231 235 224 220 233 234 239 246 237 231 235 246 237 287 245 242 243 220 205 214 206 227 225 221
200 204 201 173 196 197 191 184 191 200 199 182 184 194 202 194 197 207 229 214 224 226 240 247 241 243 230 245 241 233 232 234 235 241 278 277 255 270 213 200 209 216 220
206 190 200 191 190 181 196 189 186 182 185 192 195 204 207 204 194 208 218 197 216 219 207 250 245 242 238 233 232 236 235 227 221 219 209 206 217 239 263 206 203 214 207
183 213 194 193 184 192 188 189 183 183 199 214 206 194 205 223 202 206 220 206 208 256 248 233 229 224 219 218 218 218 219 226 230 229 221 218 213 217 224 232 230 200 206
193 198 190 184 185 190 201 195 184 212 192 198 199 208 209 220 192 217 209 209 206 251 233 222 214 211 208 207 206 206 208 210 213 216 218 217 207 207 206 213 231 267 206
110 188 195 186 187 183 183 205 196 195 191 196 226 208 208 202 210 213 198 206 211 222 219 207 204 211 214 209 206 207 208 228 210 210 216 216 210 215 221 210 200 225 243
189 201 197 196 200 210 196 191 194 190 215 212 206 197 207 205 212 205 204 206 222 219 253 239 222 208 208 213 224 229 231 252 257 257 251 225 227 230 225 211 206 219 223
192 195 205 196 197 198 192 191 214 213 196 200 209 212 207 202 202 200 205 207 221 246 232 224 215 217 219 225 231 245 262 267 273 276 275 274 270 279 286 240 208 209 223
202 205 202 197 194 210 219 204 188 201 215 207 211 205 199 191 199 200 202 216 242 227 214 219 223 227 222 253 261 263 263 261 260 273 279 293 284 288 302 314 304 245 218
195 199 214 226 208 208 202 203 210 216 214 208 205 203 193 199 201 194 214 229 228 208 214 220 221 225 257 270 268 272 269 265 259 267 295 319 302 293 286 296 292 320 263
205 216 212 187 201 203 224 215 210 222 220 206 200 194 195 201 202 205 223 226 209 213 219 243 270 277 264 259 258 262 263 268 300 343 291 472 444 532 520 482 519 521 298
195 190 202 207 226 209 208 213 208 204 199 198 194 196 196 199 203 216 227 209 212 237 255 264 258 258 258 257 259 268 305 357 358 377 490 523 513 502 493 487 486 488 506
197 208 210 205 205 206 205 206 209 211 208 204 203 197 206 210 230 222 213 229 249 250 269 259 261 263 266 268 276 313 344 359 389 492 474 480 466 466 466 464 468 475 481
188 198 202 202 198 213 212 206 203 201 198 200 204 208 244 231 216 224 241 270 266 256 260 261 259 264 273 296 334 344 344 378 505 471 451 441 441 437 433 432 438 448 459
200 207 212 215 206 194 197 198 200 205 209 211 222 235 220 221 226 263 271 260 258 261 262 264 263 279 293 334 344 349 389 442 465 442 402 385 381 381 417 418 412 423 430
214 206 199 195 195 195 196 205 210 212 242 238 222 216 225 258 256 270 258 261 251 249 271 279 310 313 347 355 356 394 436 433 414 382 374 367 366 367 371 372 395 413 415
198 198 196 195 192 206 201 205 224 236 220 218 223 261 256 263 266 258 251 249 261 322 323 319 334 352 361 372 435 432 411 411 373 363 354 352 348 350 360 368 367 370 390
196 199 195 205 203 208 215 225 233 220 217 236 264 257 270 259 254 255 266 277 306 335 333 350 368 367 413 442 410 398 408 375 358 349 342 343 342 348 354 365 374 374 373
187 201 203 210 214 216 226 234 213 220 245 266 262 266 261 252 260 277 310 354 350 358 372 374 389 433 365 420 395 405 379 354 346 338 332 331 336 343 430 417 397 386 380
196 206 206 216 210 226 227 212 238 260 268 272 274 268 256 255 286 362 374 388 391 391 415 426 393 354 412 396 375 386 353 344 336 332 324 328 329 418 412 413 418 423 428
212 199 212 214 237 223 220 247 243 268 270 266 268 264 272 293 382 437 439 418 399 379 367 376 411 406 387 372 391 370 348 334 331 320 319 326 410 412 405 405 406 408 406
201 212 211 234 222 244 243 243 267 271 268 276 270 267 302 421 407 389 377 355 357 412 396 411 397 382 370 358 376 355 341 329 324 317 310 322 425 393 390 383 373 375 381
216 206 227 222 236 236 243 260 268 264 270 270 279 310 409 394 377 359 373 404 391 410 376 386 378 367 353 345 362 345 335 325 318 309 309 319 370 363 357 357 357 362 361
207 222 226 236 230 245 256 262 264 274 271 280 313 410 391 375 376 404 395 388 387 389 376 381 369 354 341 371 353 338 327 321 318 304 308 314 355 350 355 354 348 352 352
219 227 233 233 247 251 257 259 281 272 276 302 414 397 379 391 398 386 384 381 383 380 372 374 354 343 342 367 344 335 325 318 313 303 306 310 355 346 356 363 364 367 371
224 229 237 242 249 257 261 270 294 279 294 419 399 382 394 393 394 393 381 371 369 365 376 358 344 338 374 364 339 333 320 314 308 305 304 307 350 339 350 358 374 366 453

GFSMA_2pvu_pres_048.txt.gz
Presure
122 126 128 133 207 188 179 206 195 154 205 201 189 197 202 194 219 198 209 208 206 201 225 224 202 222 212 209 215 243 263 258 258 249 242 239 230 229 236 274 242 215 213
127 137 132 156 208 128 176 212 209 191 199 195 193 192 196 195 200 196 205 195 202 224 212 203 214 206 206 199 201 224 236 230 231 230 231 232 237 225 225 222 233 277 254
213 207 182 199 188 197 195 200 113 195 196 191 186 188 193 212 205 203 210 195 227 204 196 202 214 211 200 196 203 218 228 218 214 216 221 221 224 224 229 217 218 233 243
184 211 206 212 199 196 190 204 195 188 197 197 204 203 207 186 192 194 222 214 201 201 207 217 212 203 198 205 200 229 250 233 217 214 214 216 216 215 218 223 226 209 224
190 195 199 202 198 198 209 195 193 196 199 199 200 205 192 193 220 215 198 202 211 212 215 214 201 197 204 200 222 232 241 232 231 223 217 212 212 217 219 225 210 219 205
210 214 207 211 204 206 201 202 194 193 193 215 201 194 217 210 195 207 209 216 213 213 215 204 194 204 203 204 221 242 232 216 214 215 216 217 218 220 228 232 225 218 217
213 192 199 195 191 191 195 196 209 225 200 190 219 213 206 202 204 215 208 215 218 214 204 196 205 202 208 214 218 238 222 217 221 234 231 231 227 253 257 256 259 264 232
194 191 190 195 220 208 215 198 194 222 216 202 208 202 214 216 210 205 209 213 208 209 207 212 205 211 219 218 241 230 221 238 242 270 280 277 276 272 267 271 271 271 276
239 213 216 198 200 200 203 225 210 211 205 192 215 209 203 201 207 216 219 212 205 205 206 209 213 221 236 239 228 229 243 243 267 261 269 267 279 273 276 277 276 275 286
194 200 199 207 215 207 210 207 194 199 207 203 205 205 214 220 215 201 202 203 205 212 214 237 233 238 230 226 237 258 277 277 270 266 272 272 274 275 283 284 284 281 286
213 205 209 213 211 196 202 205 204 192 209 210 224 216 192 199 202 204 209 212 215 227 238 237 231 225 235 271 278 268 269 265 267 270 282 278 277 307 296 348 389 415 443
215 209 207 204 204 201 197 194 201 210 213 209 195 198 200 200 206 206 205 238 236 228 226 233 249 269 276 272 271 268 269 264 267 293 327 335 341 353 395 398 469 433 533
207 204 202 196 194 193 195 203 209 206 201 202 198 195 205 209 214 237 241 230 227 236 278 267 274 272 265 266 263 267 273 302 315 341 341 340 364 390 403 484 486 481 469
196 198 198 195 196 202 211 208 207 202 192 195 205 206 220 224 238 231 223 238 280 278 282 277 273 267 265 263 307 336 346 361 360 364 357 384 426 471 437 448 422 428 434
195 190 192 197 211 204 202 196 189 192 202 207 220 220 240 231 220 236 267 282 282 277 271 266 267 269 329 363 369 387 380 381 378 388 408 448 451 426 420 393 381 384 385
188 193 201 205 194 195 194 189 189 198 214 215 216 231 226 230 252 269 279 278 274 275 273 288 325 374 411 399 394 389 390 401 417 424 419 394 413 408 382 374 368 366 374
194 211 188 195 193 194 188 194 203 215 217 215 238 226 236 249 263 270 272 296 284 285 294 365 437 454 446 404 430 419 419 373 373 375 415 392 397 374 366 358 355 353 355
208 191 191 194 193 193 194 207 208 217 221 238 228 239 252 259 272 276 302 300 282 286 391 431 400 381 370 366 358 377 381 431 414 398 390 395 365 355 345 342 339 339 344
190 188 190 191 187 193 208 206 217 222 233 226 239 251 254 259 267 292 302 281 296 377 419 394 373 390 401 396 398 420 413 410 384 375 394 360 349 338 336 331 333 338 348
192 190 192 199 196 211 210 213 223 225 228 232 248 251 257 261 271 302 284 308 336 414 394 393 410 396 390 418 417 404 385 379 366 389 370 348 336 329 331 325 329 419 426
190 195 203 201 210 214 210 220 222 233 227 243 250 252 255 266 272 293 309 332 413 393 410 397 402 393 384 385 385 386 376 357 362 375 350 343 329 330 322 322 345 393 409
197 209 203 209 218 209 223 227 237 226 242 248 258 254 258 273 311 301 338 413 396 404 399 403 382 377 385 381 381 369 358 345 371 361 343 338 329 324 314 320 373 368 368
204 209 206 213 210 223 220 234 229 234 250 257 254 259 273 310 294 340 415 401 388 386 411 392 379 375 368 381 365 352 346 377 365 349 333 331 326 318 312 314 370 360 360
210 212 211 212 222 221 242 229 231 250 254 249 260 271 303 291 325 417 405 386 391 364 412 389 372 374 381 367 351 340 341 369 359 347 330 320 322 315 316 317 363 354 364
204 211 213 221 220 244 227 232 243 255 248 262 266 292 299 324 420 409 392 387 378 344 364 384 377 383 368 354 341 334 372 362 348 345 328 316 314 310 318 321 357 345 355
213 214 219 223 243 224 235 239 256 253 268 269 290 310 324 422 412 395 386 386 357 330 352 383 370 366 362 346 337 327 362 352 340 340 327 314 311 314 317 322 352 342 372

GFSMA_2pvu_pres_051.txt.gz
Presure
130 119 136 123 117 116 131 121 125 172 199 205 205 213 198 206 191 210 201 196 196 204 217 203 198 223 210 198 213 216 217 216 212 207 203 203 205 240 224 225 249 252 240
121 121 119 119 129 129 139 160 145 176 195 205 201 195 191 197 210 204 193 208 196 209 201 205 219 195 206 216 208 220 219 218 207 201 207 207 211 241 243 223 217 231 239
126 122 119 125 126 140 154 194 196 199 202 199 197 207 198 202 194 201 222 229 208 196 219 211 198 211 221 217 208 221 218 216 205 206 207 206 209 225 258 244 225 220 225
122 130 124 125 133 148 190 207 192 205 205 209 210 193 196 201 202 213 197 194 213 215 198 217 225 216 208 217 213 212 212 208 202 206 209 206 209 218 244 236 229 235 222
128 138 129 134 188 165 197 200 209 207 198 192 192 193 229 228 199 198 223 208 206 209 221 210 211 210 214 219 219 218 216 213 208 208 207 213 216 216 237 234 218 218 219
127 137 130 165 201 202 210 207 209 197 197 199 207 205 197 201 223 211 203 195 216 204 211 212 224 222 212 205 203 205 210 212 215 218 217 220 230 235 235 223 213 213 219
136 129 205 209 211 200 206 195 206 239 224 215 191 197 222 205 215 191 211 203 219 225 225 207 197 205 204 206 211 207 214 217 222 239 237 236 239 230 223 216 226 238 239
147 210 208 204 209 211 202 207 195 196 211 226 219 206 212 200 203 199 219 217 206 201 197 202 199 208 212 211 218 224 241 238 230 226 227 229 230 238 245 254 264 266 260
200 207 199 195 203 202 208 209 203 229 200 212 204 205 200 195 207 211 205 199 202 202 206 207 209 214 220 233 240 237 232 227 237 250 273 271 272 272 263 275 274 273 276
205 207 203 204 204 201 227 212 205 208 200 203 199 199 204 210 212 210 203 197 204 205 208 224 251 239 233 233 232 245 275 273 277 279 280 273 272 272 274 276 280 277 270
214 213 245 217 195 200 204 205 202 204 197 202 203 206 208 204 212 196 203 203 211 220 222 241 229 233 240 264 275 278 285 279 284 289 274 282 290 284 279 277 270 269 269
211 198 206 204 204 207 205 206 194 201 199 205 216 204 209 204 198 204 202 216 217 228 242 231 241 260 263 278 306 313 307 300 295 289 285 297 332 307 317 370 363 362 356
219 223 204 205 203 205 198 203 196 203 207 206 203 204 193 200 199 201 217 221 227 241 232 247 261 263 269 280 307 302 299 295 294 360 424 421 413 405 398 391 390 389 388
212 198 205 207 199 202 197 193 195 213 203 196 199 194 195 194 203 218 219 231 250 233 247 256 265 265 280 312 312 311 336 425 425 457 444 419 427 399 401 416 411 417 422
201 195 199 195 195 186 192 201 209 203 194 193 194 196 204 205 222 217 231 247 234 245 259 266 271 284 313 308 320 445 426 408 399 392 387 383 382 383 393 435 453 429 388
197 195 200 200 189 194 205 209 202 194 196 196 201 204 206 221 218 231 243 237 239 261 266 270 283 297 304 328 435 416 398 399 401 399 396 391 384 385 391 409 435 419 416
195 199 197 194 196 206 207 202 200 200 190 202 212 213 219 221 231 231 241 240 256 268 265 285 290 301 343 427 412 419 418 416 407 396 423 428 422 410 414 403 396 393 374
195 193 196 204 204 195 198 195 198 191 203 211 215 214 222 228 238 235 245 250 269 267 282 285 300 379 424 405 408 405 404 404 402 404 395 404 392 389 382 397 380 360 355
192 197 199 199 194 204 194 195 194 206 210 209 214 222 229 237 234 248 251 270 267 278 283 298 374 426 404 401 397 406 389 398 397 393 395 386 377 381 380 377 358 350 343
198 199 198 200 203 194 195 195 207 214 210 215 218 230 229 235 248 249 273 268 275 279 302 382 430 408 396 383 416 395 383 390 386 392 376 370 360 381 380 355 348 340 338
195 199 195 202 194 199 201 203 214 200 222 217 234 224 236 249 246 274 264 277 278 299 337 431 415 394 387 364 404 384 379 370 384 371 358 359 377 370 358 348 340 332 330
196 196 200 196 197 210 199 215 203 228 220 234 224 234 249 251 269 264 281 270 324 330 430 419 400 395 372 345 394 382 393 383 364 356 351 376 366 360 347 339 332 329 324
198 195 199 194 209 197 209 224 226 219 233 226 230 247 252 266 270 280 272 317 328 431 418 412 395 386 358 337 388 381 378 364 357 348 368 358 363 352 340 336 330 325 317
195 189 205 210 204 206 221 226 222 233 229 230 242 250 260 274 280 276 301 333 434 421 408 397 394 374 349 346 389 372 371 360 349 343 378 356 351 345 343 336 330 319 316
187 211 208 213 207 219 227 224 237 229 228 240 250 259 267 283 280 296 331 428 423 403 397 387 384 355 327 347 377 384 370 349 340 361 372 363 341 338 342 335 328 318 320
210 204 213 202 221 226 223 230 230 220 237 249 257 264 286 285 300 324 433 421 403 396 391 377 370 347 310 345 378 368 364 344 332 373 368 355 342 334 332 332 323 332 334